Change the Weather History Date:

Saturday, July 13, 2013

  Actual Average Record
Temperature  
Mean Temperature 78 °F -  
Max Temperature 86 °F 90 °F 100 °F (2006)
Min Temperature 71 °F 72 °F 70 °F (2012)
Cooling Degree Days 14    
Growing Degree Days 28 (Base 50)    
Moisture  
Dew Point 68 °F    
Average Humidity 71    
Maximum Humidity 88    
Minimum Humidity 55    
Precipitation  
Precipitation 0.01 in - - ()
Sea Level Pressure  
Sea Level Pressure 29.96 in    
Wind  
Wind Speed 5 mph (NE)    
Max Wind Speed 12 mph    
Max Gust Speed -    
Visibility 10 miles    
Events Rain    
Averages and records for this station are not official NWS values.
T = Trace of Precipitation, MM = Missing Value Source: NWS Daily Summary

Daily Weather History Graph

Daily Weather History Graph

Search for Another Location

Airport or City:

Trip Planner

Search our weather history database for the weather conditions in past years. The results will help you decide how hot, cold, wet, or windy it might be!

Date:

Astronomy

Jul. 13, 2013 Rise Set
Actual Time 5:48 AM CDT 7:54 PM CDT
Civil Twilight 5:20 AM CDT 8:21 PM CDT
Nautical Twilight 4:46 AM CDT 8:55 PM CDT
Astronomical Twilight 4:09 AM CDT 9:32 PM CDT
Moon 10:43 AM CDT (7/13) 10:56 PM CDT (7/13)
Length of Visible Light 15h 01m
Length of Day
14h 05m
Waxing Crescent, 26% of the Moon is Illuminated
Jul 13
Waxing Crescent
Jul 15
First Quarter
Jul 22
Full
Jul 29
Last Quarter
Aug 6
New

Hourly Weather History & Observations

Time (CDT) Temp. Heat Index Dew Point Humidity Pressure Visibility Wind Dir Wind Speed Gust Speed Precip Events Conditions
12:58 AM 72.3 °F - 67.6 °F 85% 29.92 in 9.0 mi NW 3.5 mph - N/A   Clear
1:58 AM 72.1 °F - 67.8 °F 86% 29.93 in 9.0 mi North 3.5 mph - N/A   Partly Cloudy
2:58 AM 72.1 °F - 67.8 °F 86% 29.92 in 10.0 mi North 2.3 mph - N/A   Clear
3:58 AM 71.6 °F - 67.3 °F 86% 29.91 in 9.0 mi NNW 1.2 mph - N/A   Clear
4:58 AM 71.4 °F - 67.3 °F 87% 29.91 in 9.0 mi North 2.3 mph - N/A   Clear
5:58 AM 71.8 °F - 68.2 °F 88% 29.92 in 10.0 mi NE 2.3 mph - N/A   Clear
6:58 AM 72.3 °F - 68.4 °F 87% 29.94 in 9.0 mi NNE 5.8 mph - N/A   Scattered Clouds
7:03 AM 71.6 °F - 68.0 °F 88% 29.93 in 8.0 mi NNE 5.8 mph - N/A   Mostly Cloudy
7:18 AM 73.4 °F - 69.8 °F 88% 29.94 in 8.0 mi NE 6.9 mph - N/A   Overcast
7:38 AM 73.4 °F - 69.8 °F 88% 29.95 in 10.0 mi NE 8.1 mph - N/A   Scattered Clouds
7:58 AM 74.1 °F - 69.4 °F 85% 29.96 in 10.0 mi ENE 5.8 mph - N/A   Clear
8:58 AM 78.1 °F - 66.7 °F 68% 29.97 in 10.0 mi NE 5.8 mph - 0.01 in   Clear
9:58 AM 80.4 °F 82.7 °F 66.6 °F 63% 29.97 in 10.0 mi ENE 9.2 mph - N/A   Partly Cloudy
10:58 AM 82.4 °F 84.8 °F 66.9 °F 59% 29.99 in 10.0 mi ENE 6.9 mph - N/A   Mostly Cloudy
11:58 AM 83.5 °F 86.0 °F 66.9 °F 57% 29.99 in 10.0 mi East 5.8 mph - N/A   Scattered Clouds
12:18 PM 84.2 °F 87.3 °F 68.0 °F 58% 29.97 in 10.0 mi ENE 5.8 mph - N/A   Mostly Cloudy
12:23 PM 84.2 °F 87.3 °F 68.0 °F 58% 29.97 in 10.0 mi Variable 4.6 mph - N/A   Scattered Clouds
12:33 PM 84.2 °F 87.3 °F 68.0 °F 58% 29.97 in 10.0 mi East 4.6 mph - N/A   Mostly Cloudy
12:58 PM 85.1 °F 87.9 °F 67.5 °F 55% 29.97 in 10.0 mi East 4.6 mph - N/A   Mostly Cloudy
1:18 PM 86.0 °F 89.4 °F 68.0 °F 55% 29.95 in 10.0 mi Variable 6.9 mph - N/A   Scattered Clouds
1:58 PM 84.2 °F 87.9 °F 69.1 °F 60% 29.95 in 10.0 mi East 11.5 mph - N/A   Overcast
2:07 PM 84.2 °F 88.4 °F 69.8 °F 62% 29.94 in 10.0 mi East 11.5 mph - N/A Rain Light Rain
2:17 PM 82.4 °F 87.2 °F 71.6 °F 70% 29.94 in 10.0 mi ENE 11.5 mph - N/A Rain Light Rain
2:33 PM 82.4 °F 86.3 °F 69.8 °F 66% 29.94 in 10.0 mi ENE 10.4 mph - N/A   Scattered Clouds
2:58 PM 82.2 °F 85.1 °F 68.2 °F 62% 29.96 in 10.0 mi East 8.1 mph - 0.00 in   Scattered Clouds
3:58 PM 82.0 °F 85.3 °F 68.9 °F 64% 29.95 in 10.0 mi East 4.6 mph - N/A   Clear
4:58 PM 83.7 °F 88.3 °F 70.7 °F 65% 29.94 in 10.0 mi NNW 4.6 mph - N/A   Clear
5:58 PM 82.4 °F 86.3 °F 70.2 °F 66% 29.92 in 10.0 mi East 8.1 mph - N/A   Clear
6:58 PM 81.3 °F 84.6 °F 69.3 °F 67% 29.96 in 10.0 mi East 9.2 mph - N/A   Partly Cloudy
8:59 PM 75.4 °F - 64.0 °F 68% 30.01 in 10.0 mi NE 5.8 mph - N/A   Mostly Cloudy
9:14 PM 75.2 °F - 64.4 °F 69% 30.01 in 10.0 mi NE 3.5 mph - N/A   Mostly Cloudy
9:19 PM 75.2 °F - 64.4 °F 69% 30.01 in 10.0 mi NE 2.3 mph - N/A   Mostly Cloudy
9:58 PM 74.1 °F - 65.1 °F 73% 30.02 in 10.0 mi NE 4.6 mph - N/A   Clear
10:58 PM 73.2 °F - 64.6 °F 74% 30.03 in 10.0 mi ENE 9.2 mph - N/A   Partly Cloudy